Regional Weather Roundup
Issued by NWS

Home | Current Version | Previous Version | Text Only | Print | Product List | Glossary Off
Versions: 1 2 3 4 5 6 7 8 9 10 11 12 13 14 15 16 17 18 19 20 21 22 23 24 25 26 27 28 29 30 31 32 33 34 35 36 37 38 39 40 41 42 43 44 45 46 47 48 49 50

361
ASUS43 KDMX 220101
RWRIA

WEATHER ROUNDUP FOR IOWA
NATIONAL WEATHER SERVICE DES MOINES IA
800 PM CDT SAT OCT 21 2017

NOTE: "FAIR" INDICATES FEW OR NO CLOUDS BELOW 12,000 FEET WITH NO
SIGNIFICANT WEATHER AND/OR OBSTRUCTIONS TO VISIBILITY.

* - THESE STATIONS ARE NOT NWS STATIONS...THUS NOT UNDER NWS
QUALITY CONTROL.  THEY ALSO DO NOT REPORT WEATHER SUCH
AS PRECIPITATION OR FOG.

IAZ001>003-012>014-020>022-031>034-043>046-220200-
   NORTHWEST IOWA

CITY           SKY/WX    TMP DP  RH WIND       PRES   REMARKS
CHEROKEE *     CLOUDY    52  44  74 W8        29.87S
DENISON *      CLOUDY    54  45  71 NW9       29.89R
LE MARS *      CLEAR     50  41  71 NW7G14    29.89S
ORANGE CITY *  CLEAR     50  43  76 W13       29.88R
SHELDON *      PTCLDY    50  41  71 W12G17    29.86R
SIOUX CITY     PTCLDY    51  40  65 NW12      29.90R
SPENCER        LGT RAIN  53  43  68 W14       29.84R
STORM LAKE *   CLOUDY    52  43  71 NW14G21   29.85S
$$

IAZ055>058-069>071-079>083-090>094-220200-
   SOUTHWEST IOWA

CITY           SKY/WX    TMP DP  RH WIND       PRES   REMARKS
ATLANTIC *     CLOUDY    55  46  71 NW9       29.86R
AUDUBON *      CLOUDY    54  46  76 NW7       29.86R
CLARINDA *       N/A     57  50  77 N9G15     29.88R
COUNCIL BLFS * CLOUDY    55  43  62 NW13G18   29.89R
CRESTON *      LGT RAIN  54  52  94 NW15G22   29.87R
HARLAN  *      CLOUDY    54  45  71 NW14G20   29.91R
LAMONI         TSTM      60  58  92 S14       29.86R
RED OAK *      CLOUDY    57  46  67 NW9G15    29.87S
SHENANDOAH *   CLOUDY    57  45  62 NW10      29.89R
$$

IAZ047>049-059>061-072>074-084-220200-
   CENTRAL IOWA

CITY           SKY/WX    TMP DP  RH WIND       PRES   REMARKS
AMES           LGT RAIN  57  55  93 NW16      29.81R
ANKENY *       HVY RAIN  59  57  94 W14G28    29.82R
BOONE *        LGT RAIN  55  54  94 NW14G21   29.80S
CHARITON *     LGT RAIN  68  64  88 S13G21    29.78F
DES MOINES     TSTM      58  57  97 N17       29.77R FOG
GRINNELL*      CLOUDY    70  61  74 S9        29.80S
KNOXVILLE *    HVY RAIN  68  63  83 S14G21    29.78R
MARSHALLTOWN   TSTM      66  62  87 S12       29.77R
NEWTON *       CLOUDY    66  64  94 S16       29.78F
PELLA *        LGT RAIN  71  62  73 S14G20    29.80S
PERRY *        MOCLDY    55  54  95 NW10G17   29.81F
$$

IAZ004>006-015-016-023>025-035-036-220200-
   NORTH CENTRAL IOWA

CITY           SKY/WX    TMP DP  RH WIND       PRES   REMARKS
ALGONA *       CLOUDY    55  50  82 NW10      29.81R
CLARION *      CLOUDY    57  57 100 NW9       29.81S
ESTHERVILLE    MOCLDY    53  45  74 W9        29.81R
FORT DODGE *   CLOUDY    55  50  83 W5        29.84R
MASON CITY     LGT RAIN  57  54  89 NW10      29.81R
FOREST CITY *  CLOUDY    55  54  94 NW8       29.79R
WEBSTER CITY * LGT RAIN  54  52  94 NW8G15    29.79S
IOWA FALLS *   RAIN      63  60  92 W16G22    29.79R
$$

IAZ007>011-017>019-026>030-037>042-050>054-066-220200-
   NORTHEAST IOWA

CITY           SKY/WX    TMP DP  RH WIND       PRES   REMARKS
CEDAR RAPIDS   PTCLDY    72  61  68 S12       29.81F
CHARLES CITY * LGT RAIN  66  66 100 S12G17    29.78R
CLINTON *      CLEAR     71  61  70 S15       29.90F
DECORAH *      CLOUDY    70  61  73 SE8G17    29.78S
DUBUQUE        PTCLDY    70  59  68 S15       29.86F
MONTICELLO *   CLOUDY    72  61  68 SE14G20   29.83F
OELWEIN *      CLOUDY    70  63  78 S16       29.78F
WATERLOO       TSTM      66  63  90 SW12G21   29.78R FOG
$$

IAZ064-065-067-068-078-220200-
   EAST CENTRAL IOWA

CITY           SKY/WX    TMP DP  RH WIND       PRES   REMARKS
DAVENPORT      CLEAR     72  61  68 S17G25    29.90F
IOWA CITY      MOCLDY    74  61  63 SE10      29.85F
MUSCATINE *    CLEAR     73  63  68 SE17G25   29.85F
QUAD CITIES    PTCLDY    73  61  65 S14       29.89F
$$

IAZ062-063-075>077-085>089-095>099-220200-
   SOUTHEAST IOWA

CITY           SKY/WX    TMP DP  RH WIND       PRES   REMARKS
BURLINGTON     CLEAR     72  63  73 S13       29.89F
FAIRFIELD *    PTCLDY    73  61  64 S16G23    29.84S
FORT MADISON * PTCLDY    72  63  73 S10       29.90F
KEOKUK *       PTCLDY    75  61  60 S10       29.88F
OSKALOOSA *      N/A     69  61  73 S16       29.81S
OTTUMWA        CLOUDY    72  61  68 S15       29.82S
WASHINGTON *   CLEAR     72  63  73 S18       29.85F
$$

ABBREVIATIONS USED IN REMARKS
   TC - TEMPERATURES IN CELSIUS
  WCI - WIND CHILL INDEX
   HX - HEAT INDEX
  VSB - VISIBILITY
$$





USA.gov is the U.S. government's official web portal to all federal, state and local government web resources and services.